KAZSAT-2

Last updated on Sept. 28, 2020, 5:45 a.m. UTC

1 37749U 11035B   20271.88312094 -.00000220  00000-0  00000-0 0  9992
2 37749   0.0191 181.9613 0001048  85.1541 144.4478  1.00268366 32446
UTC
Height (km)
Latitude
Longitude
Inclination
Orbital Period
UTC large
Height (km)
Speed (km/s)
/
Latitude / Longitude
Inclination (degrees)
Orbital Period (minutes)
Azimuth
Elevation
Range (km)
Doppler Factor
iOS Compass Heading
iOS Angle

Next 30 passes for location: Hong Kong

Rise time Rise Azimuth (degrees) Set time Set Azimuth (degrees) Duration Max altitude (degrees)

No matching passes for this satellites